Location: Bois Neuf
(42.7667°N, 0.6333°E)
Time: 17:57:42
(UTC+00:00)

Lacrosse 4 Rocket - Pass Details

Date: 07 June 2020
Orbit: 541 x 618 km, 68.0° (Epoch: 12 July)

Event Time Altitude Azimuth Distance (km) Brightness Sun altitude
Rises 01:02:19 0° 321° (NW) 2,820 5.4 -22.7°
Reaches altitude 10° 01:04:46 10° 311° (NW) 1,901 4.3 -22.6°
Enters shadow 01:07:18 26° 281° (W) 1,157 2.8 -22.4°
